OE3XOC-11 Weather Reports


time (UTC)temp
F
wind
direction
speed
knots
gust
knots
rain 1hr
in
rain 24hr
in
rain mn
in
humidity
%
barometer
mb
20260505203646 70 0.0 0.0 0.00 0.00 0.00 38 950.7
20260505203146 70 0.0 0.0 0.00 0.00 0.00 37 950.6
20260505202646 73 0.0 0.0 0.00 0.00 0.00 33 950.5
20260505202146 74 0.0 0.0 0.00 0.00 0.00 32 950.4
20260505201646 74 0.0 0.0 0.00 0.00 0.00 32 950.4
20260505201146 75 0.0 0.0 0.00 0.00 0.00 31 950.2
20260505200646 74 0.0 0.0 0.00 0.00 0.00 32 950.1
20260505200146 74 0.0 0.0 0.00 0.00 0.00 33 950.1
20260505195646 73 0.0 0.0 0.00 0.00 0.00 34 949.9
20260505195146 73 0.0 0.0 0.00 0.00 0.00 34 949.8
20260505194646 73 0.0 0.0 0.00 0.00 0.00 34 949.8
20260505194146 73 0.0 0.0 0.00 0.00 0.00 34 949.8
20260505193646 74 0.0 0.0 0.00 0.00 0.00 33 949.7
20260505193146 74 0.0 0.0 0.00 0.00 0.00 33 949.7
20260505192646 74 0.0 0.0 0.00 0.00 0.00 33 949.7
20260505192146 75 0.0 0.0 0.00 0.00 0.00 33 949.7
20260505191646 75 0.0 0.0 0.00 0.00 0.00 33 949.7
20260505191146 75 0.0 0.0 0.00 0.00 0.00 33 949.7
20260505190646 74 0.0 0.0 0.00 0.00 0.00 34 949.7
20260505190146 74 0.0 0.0 0.00 0.00 0.00 34 949.7
20260505185646 75 0.0 0.0 0.00 0.00 0.00 33 949.6
20260505185146 76 0.0 0.0 0.00 0.00 0.00 32 949.6
20260505184646 75 0.0 0.0 0.00 0.00 0.00 33 949.5
20260505184146 76 0.0 0.0 0.00 0.00 0.00 32 949.5
20260505183646 76 0.0 0.0 0.00 0.00 0.00 32 949.5
20260505183146 76 0.0 0.0 0.00 0.00 0.00 32 949.4
20260505182646 76 0.0 0.0 0.00 0.00 0.00 33 949.5
20260505182146 76 0.0 0.0 0.00 0.00 0.00 32 949.5
20260505181646 77 0.0 0.0 0.00 0.00 0.00 32 949.4
20260505181146 77 0.0 0.0 0.00 0.00 0.00 32 949.4
20260505180646 77 0.0 0.0 0.00 0.00 0.00 32 949.4
20260505180146 77 0.0 0.0 0.00 0.00 0.00 32 949.5
20260505175646 77 0.0 0.0 0.00 0.00 0.00 31 949.4
20260505175146 77 0.0 0.0 0.00 0.00 0.00 32 949.5
20260505174646 78 0.0 0.0 0.00 0.00 0.00 31 949.4
20260505174146 78 0.0 0.0 0.00 0.00 0.00 31 949.4
20260505173646 79 0.0 0.0 0.00 0.00 0.00 30 949.4
20260505173146 79 0.0 0.0 0.00 0.00 0.00 30 949.4
20260505172646 79 0.0 0.0 0.00 0.00 0.00 30 949.5
20260505172146 80 0.0 0.0 0.00 0.00 0.00 29 949.4
20260505171646 79 0.0 0.0 0.00 0.00 0.00 30 949.4
20260505171146 80 0.0 0.0 0.00 0.00 0.00 29 949.4
20260505170646 79 0.0 0.0 0.00 0.00 0.00 30 949.4
20260505170146 79 0.0 0.0 0.00 0.00 0.00 30 949.5
20260505165646 80 0.0 0.0 0.00 0.00 0.00 29 949.4
20260505165146 81 0.0 0.0 0.00 0.00 0.00 28 949.5
20260505164646 81 0.0 0.0 0.00 0.00 0.00 27 949.5
20260505164146 81 0.0 0.0 0.00 0.00 0.00 26 949.5
20260505163646 80 0.0 0.0 0.00 0.00 0.00 27 949.6
20260505163146 79 0.0 0.0 0.00 0.00 0.00 27 949.6
20260505162646 80 0.0 0.0 0.00 0.00 0.00 27 949.6
20260505162146 79 0.0 0.0 0.00 0.00 0.00 28 949.7
20260505161646 80 0.0 0.0 0.00 0.00 0.00 27 949.8
20260505161146 79 0.0 0.0 0.00 0.00 0.00 28 949.8
20260505160646 80 0.0 0.0 0.00 0.00 0.00 27 949.9
20260505160146 80 0.0 0.0 0.00 0.00 0.00 27 949.8
20260505153146 81 0.0 0.0 0.00 0.00 0.00 23 949.9
20260505152646 82 0.0 0.0 0.00 0.00 0.00 23 949.9
20260505152146 81 0.0 0.0 0.00 0.00 0.00 23 949.9
20260505151646 82 0.0 0.0 0.00 0.00 0.00 23 949.9
20260505151146 83 0.0 0.0 0.00 0.00 0.00 22 950.0
20260505150646 81 0.0 0.0 0.00 0.00 0.00 23 949.9
20260505150146 83 0.0 0.0 0.00 0.00 0.00 22 949.8
20260505140646 82 0.0 0.0 0.00 0.00 0.00 21 949.9
20260505140146 83 0.0 0.0 0.00 0.00 0.00 21 950.1
20260505130146 82 0.0 0.0 0.00 0.00 0.00 21 950.9
20260505124646 82 0.0 0.0 0.00 0.00 0.00 22 951.1
20260505124146 82 0.0 0.0 0.00 0.00 0.00 22 951.1
20260505123646 81 0.0 0.0 0.00 0.00 0.00 22 951.3
20260505123146 81 0.0 0.0 0.00 0.00 0.00 22 951.3
20260505122646 82 0.0 0.0 0.00 0.00 0.00 23 951.5
20260505122146 82 0.0 0.0 0.00 0.00 0.00 23 951.6
20260505121646 81 0.0 0.0 0.00 0.00 0.00 25 951.7
20260505121146 81 0.0 0.0 0.00 0.00 0.00 27 951.8
20260505120646 81 0.0 0.0 0.00 0.00 0.00 26 951.8
20260505120146 81 0.0 0.0 0.00 0.00 0.00 27 951.9
20260505115646 81 0.0 0.0 0.00 0.00 0.00 27 952.0
20260505115146 81 0.0 0.0 0.00 0.00 0.00 27 952.1
20260505114646 79 0.0 0.0 0.00 0.00 0.00 29 952.2
20260505114146 80 0.0 0.0 0.00 0.00 0.00 29 952.3
20260505113646 79 0.0 0.0 0.00 0.00 0.00 29 952.3
20260505113146 79 0.0 0.0 0.00 0.00 0.00 31 952.4
20260505112646 79 0.0 0.0 0.00 0.00 0.00 31 952.5
20260505112146 79 0.0 0.0 0.00 0.00 0.00 32 952.6
20260505111646 78 0.0 0.0 0.00 0.00 0.00 32 952.6
20260505110818 79 0.0 0.0 0.00 0.00 0.00 32 952.7
20260505110318 79 0.0 0.0 0.00 0.00 0.00 31 952.8
20260505101818 78 0.0 0.0 0.00 0.00 0.00 32 953.4
20260505101318 76 0.0 0.0 0.00 0.00 0.00 32 953.5
20260505100818 77 0.0 0.0 0.00 0.00 0.00 33 953.6
20260505100318 78 0.0 0.0 0.00 0.00 0.00 32 953.6
20260505095818 78 0.0 0.0 0.00 0.00 0.00 31 953.7
20260505095318 78 0.0 0.0 0.00 0.00 0.00 31 953.7
20260505094818 78 0.0 0.0 0.00 0.00 0.00 32 953.8
20260505094318 77 0.0 0.0 0.00 0.00 0.00 34 953.8
20260505093818 77 0.0 0.0 0.00 0.00 0.00 33 953.9
20260505093318 77 0.0 0.0 0.00 0.00 0.00 35 953.9
20260505092818 77 0.0 0.0 0.00 0.00 0.00 36 953.9
20260505092318 76 0.0 0.0 0.00 0.00 0.00 36 953.9
20260505091818 76 0.0 0.0 0.00 0.00 0.00 35 954.0
20260505091318 77 0.0 0.0 0.00 0.00 0.00 35 954.1
20260505090818 77 0.0 0.0 0.00 0.00 0.00 36 954.1
20260505090318 76 0.0 0.0 0.00 0.00 0.00 36 954.2
20260505085818 76 0.0 0.0 0.00 0.00 0.00 36 954.2
20260505085318 76 0.0 0.0 0.00 0.00 0.00 36 954.2
20260505084818 76 0.0 0.0 0.00 0.00 0.00 35 954.2
20260505084318 76 0.0 0.0 0.00 0.00 0.00 35 954.3
20260505083818 75 0.0 0.0 0.00 0.00 0.00 34 954.3
20260505083318 76 0.0 0.0 0.00 0.00 0.00 33 954.3
20260505082818 75 0.0 0.0 0.00 0.00 0.00 33 954.2
20260505082318 75 0.0 0.0 0.00 0.00 0.00 33 954.3
20260505081818 75 0.0 0.0 0.00 0.00 0.00 33 954.3
20260505081318 74 0.0 0.0 0.00 0.00 0.00 34 954.4
20260505080818 75 0.0 0.0 0.00 0.00 0.00 35 954.5
20260505080318 75 0.0 0.0 0.00 0.00 0.00 34 954.5
20260505075818 75 0.0 0.0 0.00 0.00 0.00 34 954.5
20260505075318 75 0.0 0.0 0.00 0.00 0.00 34 954.4
20260505074818 75 0.0 0.0 0.00 0.00 0.00 35 954.4
20260505074318 75 0.0 0.0 0.00 0.00 0.00 35 954.4
20260505073818 74 0.0 0.0 0.00 0.00 0.00 36 954.5
20260505073318 75 0.0 0.0 0.00 0.00 0.00 35 954.5
20260505072818 74 0.0 0.0 0.00 0.00 0.00 36 954.5
20260505072318 74 0.0 0.0 0.00 0.00 0.00 35 954.6
20260505071818 74 0.0 0.0 0.00 0.00 0.00 35 954.6
20260505071318 74 0.0 0.0 0.00 0.00 0.00 35 954.6
20260505070818 73 0.0 0.0 0.00 0.00 0.00 36 954.6
20260505070318 72 0.0 0.0 0.00 0.00 0.00 36 954.5
20260505065818 73 0.0 0.0 0.00 0.00 0.00 35 954.6
20260505065318 72 0.0 0.0 0.00 0.00 0.00 36 954.6
20260505064818 71 0.0 0.0 0.00 0.00 0.00 35 954.6
20260505064318 72 0.0 0.0 0.00 0.00 0.00 35 954.6
20260505063818 71 0.0 0.0 0.00 0.00 0.00 35 954.5
20260505063318 71 0.0 0.0 0.00 0.00 0.00 34 954.5
20260505062818 70 0.0 0.0 0.00 0.00 0.00 36 954.5
20260505062318 68 0.0 0.0 0.00 0.00 0.00 37 954.5
20260505061818 69 0.0 0.0 0.00 0.00 0.00 35 954.5
20260505061318 69 0.0 0.0 0.00 0.00 0.00 35 954.5
20260505060818 67 0.0 0.0 0.00 0.00 0.00 37 954.5
20260505060318 68 0.0 0.0 0.00 0.00 0.00 36 954.5
20260505055818 69 0.0 0.0 0.00 0.00 0.00 35 954.5
20260505055318 69 0.0 0.0 0.00 0.00 0.00 36 954.4
20260505054818 68 0.0 0.0 0.00 0.00 0.00 37 954.4
20260505054318 68 0.0 0.0 0.00 0.00 0.00 37 954.5
20260505053818 67 0.0 0.0 0.00 0.00 0.00 37 954.5
20260505053318 68 0.0 0.0 0.00 0.00 0.00 37 954.5
20260505052818 67 0.0 0.0 0.00 0.00 0.00 39 954.4
20260505052318 66 0.0 0.0 0.00 0.00 0.00 39 954.4
20260505051818 63 0.0 0.0 0.00 0.00 0.00 44 954.4
20260505051318 65 0.0 0.0 0.00 0.00 0.00 41 954.4
20260505050818 64 0.0 0.0 0.00 0.00 0.00 41 954.4
20260505050317 68 0.0 0.0 0.00 0.00 0.00 37 954.3
20260505041317 71 0.0 0.0 0.00 0.00 0.00 33 954.2
20260505040818 70 0.0 0.0 0.00 0.00 0.00 35 954.2
20260505040317 71 0.0 0.0 0.00 0.00 0.00 33 954.2
20260505035818 70 0.0 0.0 0.00 0.00 0.00 34 954.2
20260505035318 71 0.0 0.0 0.00 0.00 0.00 34 954.3
20260505034817 70 0.0 0.0 0.00 0.00 0.00 35 954.3
20260505034317 68 0.0 0.0 0.00 0.00 0.00 37 954.3
20260505033818 68 0.0 0.0 0.00 0.00 0.00 37 954.2
20260505033318 66 0.0 0.0 0.00 0.00 0.00 39 954.3
20260505032817 66 0.0 0.0 0.00 0.00 0.00 39 954.2
20260505032318 66 0.0 0.0 0.00 0.00 0.00 40 954.3
20260505031818 66 0.0 0.0 0.00 0.00 0.00 40 954.4
20260505031318 65 0.0 0.0 0.00 0.00 0.00 40 954.4
20260505030818 65 0.0 0.0 0.00 0.00 0.00 40 954.4
20260505030318 65 0.0 0.0 0.00 0.00 0.00 40 954.4
20260505025818 66 0.0 0.0 0.00 0.00 0.00 39 954.4
20260505025317 67 0.0 0.0 0.00 0.00 0.00 38 954.5
20260505024818 67 0.0 0.0 0.00 0.00 0.00 38 954.5
20260505024318 67 0.0 0.0 0.00 0.00 0.00 37 954.5
20260505023817 66 0.0 0.0 0.00 0.00 0.00 38 954.6
20260505023318 68 0.0 0.0 0.00 0.00 0.00 37 954.5
20260505022818 68 0.0 0.0 0.00 0.00 0.00 37 954.5
20260505022317 68 0.0 0.0 0.00 0.00 0.00 37 954.5
20260505021817 70 0.0 0.0 0.00 0.00 0.00 35 954.5
20260505021318 69 0.0 0.0 0.00 0.00 0.00 36 954.6
20260505020817 68 0.0 0.0 0.00 0.00 0.00 37 954.7
20260505020317 69 0.0 0.0 0.00 0.00 0.00 36 954.7
20260505015818 69 0.0 0.0 0.00 0.00 0.00 36 954.7
20260505015318 69 0.0 0.0 0.00 0.00 0.00 36 954.8
20260505014817 68 0.0 0.0 0.00 0.00 0.00 37 954.8
20260505014318 68 0.0 0.0 0.00 0.00 0.00 36 954.9
20260505013818 67 0.0 0.0 0.00 0.00 0.00 38 954.9
20260505013317 68 0.0 0.0 0.00 0.00 0.00 36 954.9
20260505012817 68 0.0 0.0 0.00 0.00 0.00 37 954.9
20260505012318 69 0.0 0.0 0.00 0.00 0.00 35 954.9
20260505011818 70 0.0 0.0 0.00 0.00 0.00 33 954.9
20260505011318 70 0.0 0.0 0.00 0.00 0.00 34 955.0
20260505010817 69 0.0 0.0 0.00 0.00 0.00 34 955.0
20260505010318 70 0.0 0.0 0.00 0.00 0.00 34 955.1
20260505005817 69 0.0 0.0 0.00 0.00 0.00 35 955.0
20260505005317 67 0.0 0.0 0.00 0.00 0.00 37 955.1
20260505004818 67 0.0 0.0 0.00 0.00 0.00 37 955.1
20260505004318 68 0.0 0.0 0.00 0.00 0.00 37 955.2
20260505003817 70 0.0 0.0 0.00 0.00 0.00 34 955.1
20260505003317 72 0.0 0.0 0.00 0.00 0.00 31 955.1
20260505002817 71 0.0 0.0 0.00 0.00 0.00 32 955.1
20260505002317 71 0.0 0.0 0.00 0.00 0.00 33 955.1
20260505001818 71 0.0 0.0 0.00 0.00 0.00 33 955.1
20260505001317 71 0.0 0.0 0.00 0.00 0.00 33 955.2
20260505000817 71 0.0 0.0 0.00 0.00 0.00 33 955.2
20260505000317 71 0.0 0.0 0.00 0.00 0.00 33 955.1
20260504235817 71 0.0 0.0 0.00 0.00 0.00 33 955.1
20260504235317 71 0.0 0.0 0.00 0.00 0.00 33 955.2
20260504234817 71 0.0 0.0 0.00 0.00 0.00 32 955.2
20260504234317 71 0.0 0.0 0.00 0.00 0.00 32 955.3
20260504233817 71 0.0 0.0 0.00 0.00 0.00 32 955.3
20260504233317 72 0.0 0.0 0.00 0.00 0.00 32 955.3
20260504232817 71 0.0 0.0 0.00 0.00 0.00 32 955.3
20260504232317 72 0.0 0.0 0.00 0.00 0.00 32 955.4
20260504231817 72 0.0 0.0 0.00 0.00 0.00 31 955.4
20260504231317 72 0.0 0.0 0.00 0.00 0.00 32 955.3
20260504230817 72 0.0 0.0 0.00 0.00 0.00 32 955.4
20260504230317 71 0.0 0.0 0.00 0.00 0.00 32 955.5
20260504225817 72 0.0 0.0 0.00 0.00 0.00 32 955.5
20260504225317 71 0.0 0.0 0.00 0.00 0.00 32 955.5
20260504224817 72 0.0 0.0 0.00 0.00 0.00 32 955.5
20260504224317 72 0.0 0.0 0.00 0.00 0.00 32 955.6
20260504223817 72 0.0 0.0 0.00 0.00 0.00 31 955.6
20260504223317 72 0.0 0.0 0.00 0.00 0.00 31 955.6
20260504222817 72 0.0 0.0 0.00 0.00 0.00 31 955.6
20260504222317 72 0.0 0.0 0.00 0.00 0.00 31 955.5
20260504221817 72 0.0 0.0 0.00 0.00 0.00 31 955.6
20260504221317 73 0.0 0.0 0.00 0.00 0.00 31 955.5
20260504220817 72 0.0 0.0 0.00 0.00 0.00 31 955.5
20260504220317 73 0.0 0.0 0.00 0.00 0.00 31 955.5
20260504215817 72 0.0 0.0 0.00 0.00 0.00 31 955.5
20260504215317 73 0.0 0.0 0.00 0.00 0.00 30 955.6
20260504214817 73 0.0 0.0 0.00 0.00 0.00 31 955.6
20260504214317 73 0.0 0.0 0.00 0.00 0.00 30 955.5
20260504213817 73 0.0 0.0 0.00 0.00 0.00 30 955.5
20260504213317 72 0.0 0.0 0.00 0.00 0.00 31 955.5
20260504212817 73 0.0 0.0 0.00 0.00 0.00 31 955.5
20260504212317 72 0.0 0.0 0.00 0.00 0.00 31 955.5
20260504211817 73 0.0 0.0 0.00 0.00 0.00 30 955.6
20260504211317 73 0.0 0.0 0.00 0.00 0.00 30 955.6
20260504210817 74 0.0 0.0 0.00 0.00 0.00 30 955.8
20260504210317 74 0.0 0.0 0.00 0.00 0.00 30 955.8
20260504205817 73 0.0 0.0 0.00 0.00 0.00 30 955.8
20260504205318 74 0.0 0.0 0.00 0.00 0.00 30 955.8
20260504204817 74 0.0 0.0 0.00 0.00 0.00 30 955.8
20260504204317 74 0.0 0.0 0.00 0.00 0.00 30 955.8
20260504203817 73 0.0 0.0 0.00 0.00 0.00 30 955.8